NETSAT-1

Last updated on Thu Nov 21 2024 00:03:40 GMT+0000 (Coordinated Universal Time)

1 46506U 20068W 24325.36926470 .00013380 00000+0 66280-3 0 9999 2 46506 97.8262 285.8109 0006456 186.1348 173.9806 15.17882860227777
UTC large
Height (km)
Speed (km/s)
/
Latitude / Longitude
Inclination (degrees)
Orbital Period (minutes)
Azimuth
Elevation
Range (km)
Doppler Factor

Next 0 passes for location: London (51.5072 / 0.1276)

Sorry there are no passes over London.